Погода в Тимике

Индонезия     4°30′54″S   136°51′05″E
темп.,
°C
ветер,
м/с
пор.,
м/с
влажн.,
%
обл.,
%
осадки,
мм/ч
давл.,
гПа
погр.,
м
2 марта, вт
вт200:00+23св0195100 0.0 101224
03:00+23ссз0194100 0.0 101023
06:00+22с0093100 0.0 101123
09:00+30зсз0165100 0.0 1012355
12:00+35зюз2345100 0.0 10101436
15:00+34ююз335198 0.0 10081348
18:00+26з1292100 4.4 100943
21:00+24зсз129596 8.6 101173
3 марта, ср
ср300:00+23сз1296100 0.1 101244
03:00+22всв1296100 2.8 101059
06:00+22ююв1197100 1.9 101225
09:00+22ссв1498100 6.9 1014189
12:00+27юз1177100 0.1 1011196
15:00+26с1281100 0.1 100971
18:00+25ююв1283100 0.0 101132
21:00+23ссв1298100 5.3 101355
4 марта, чт
чт400:00+22ссв1398100 4.6 1013127
03:00+22сз2498100 5.1 1011102
06:00+22ссв1297100 1.3 101243
09:00+22с1195100 1.8 101354
12:00+33ссз015288 0.0 1011483
15:00+32з344959 0.0 10091476
18:00+26зсз117771 0.0 100925
21:00+24вюв008362 0.0 101224
5 марта, пт
пт500:00+24с1183100 0.0 101124
03:00+24ссв1185100 0.1 101024
06:00+22св118932 0.1 101123
09:00+31сз035916 0.1 1012676
12:00+34зюз35440 0.0 10101816
15:00+33юз44493 0.1 10081678
18:00+26ссз1187100 2.4 100926
21:00+24ссв2294100 3.4 101291
6 марта, сб
сб600:00+23св119495 0.9 101128
03:00+23св119996 8.4 101041
06:00+22св119898 2.8 101124
09:00+27вюв117994 2.9 1012298
12:00+34зюз234748 0.0 10091699
15:00+31юз247473 3.5 10071256
18:00+25ссз1294100 6.3 100925
21:00+24с1196100 6.5 101124